Date,TemperatureHighF,TemperatureAvgF,TemperatureLowF,DewpointHighF,DewpointAvgF,DewpointLowF,HumidityHigh,HumidityAvg,HumidityLow,PressureMaxIn,PressureMinIn,WindSpeedMaxMPH,WindSpeedAvgMPH,GustSpeedMaxMPH,PrecipitationSumIn
2019-1-1,48.9,46.2,43.6,46.9,42.1,31.0,93,82,58,30.56,30.40,19,0,19,0.03
2019-1-2,45.6,44.0,42.5,38.3,36.1,32.5,82,73,61,30.74,30.56,14,0,14,0.02
2019-1-3,45.8,43.1,40.4,39.7,38.3,36.8,90,85,75,30.76,30.72,5,0,5,0.09
2019-1-4,45.5,43.5,41.5,41.9,38.9,36.0,93,84,77,30.75,30.59,9,0,11,0.03
2019-1-5,46.9,45.7,44.5,44.3,41.7,40.1,93,85,79,30.59,30.52,10,0,12,0.01
2019-1-6,46.0,45.2,44.6,41.2,39.5,37.6,87,80,75,30.58,30.51,9,0,9,0.00
2019-1-7,50.7,47.0,43.2,48.1,44.2,38.9,93,89,80,30.58,30.16,21,0,26,0.04
2019-1-8,48.9,45.6,42.4,43.5,40.6,37.2,85,79,76,30.16,30.08,26,0,34,0.10
2019-1-9,46.3,43.3,40.3,39.0,35.9,32.8,89,76,65,30.33,30.11,8,0,22,0.13
2019-1-10,43.1,41.1,39.2,41.5,35.9,33.4,95,82,70,30.39,30.31,3,0,3,0.04
2019-1-11,48.2,45.5,42.8,46.2,44.3,41.5,97,93,87,30.32,30.27,12,0,13,0.06
2019-1-12,48.4,47.1,45.7,45.9,43.8,38.2,94,88,74,30.31,29.93,13,0,23,0.11
2019-1-13,50.3,48.0,45.8,47.5,46.1,42.3,96,91,82,29.93,29.66,22,0,23,0.42
2019-1-14,47.7,44.7,41.7,42.7,39.0,34.3,88,81,72,30.16,29.75,13,0,14,0.05
2019-1-15,47.9,44.6,41.2,44.5,42.2,36.3,91,87,80,30.15,29.94,18,0,19,0.00
2019-1-16,47.6,44.3,41.0,44.5,41.7,39.1,94,90,85,29.95,29.54,23,0,23,0.28
2019-1-17,43.6,40.3,37.0,41.2,37.1,32.9,94,86,73,29.97,29.56,21,0,24,0.18
2019-1-18,42.5,37.1,31.8,35.1,32.5,29.6,94,82,71,30.14,29.97,4,0,5,0.00
2019-1-19,38.5,34.0,29.5,31.6,29.8,26.8,95,88,74,30.10,29.94,9,0,9,0.01
2019-1-20,38.2,32.1,26.0,27.5,25.4,22.9,89,78,59,30.23,29.96,1,0,1,0.00
2019-1-21,43.2,35.3,27.4,36.7,30.6,24.9,92,85,73,30.25,30.00,1,0,2,0.01
2019-1-22,34.5,32.4,30.3,33.1,29.6,25.7,95,88,78,30.00,29.50,18,0,19,0.02
2019-1-23,33.3,31.5,29.6,31.4,29.5,27.3,95,90,86,29.76,29.46,3,0,4,0.00
2019-1-24,37.4,34.7,31.9,33.4,31.0,29.2,92,88,82,29.97,29.76,3,0,4,0.01
2019-1-25,47.7,39.4,31.1,46.5,35.3,28.9,97,94,90,29.99,29.82,6,0,18,0.06
2019-1-26,47.6,46.4,45.2,46.0,44.1,41.7,94,91,82,29.83,29.24,19,0,20,0.11
2019-1-27,46.4,43.4,40.4,44.2,40.8,37.0,96,90,78,29.24,29.03,27,0,29,0.54
2019-1-28,45.0,41.9,38.8,40.8,37.0,34.3,94,84,68,29.74,29.11,23,0,27,0.30
2019-1-29,41.1,38.3,35.6,35.8,32.4,30.6,88,80,70,29.74,29.39,0,0,10,0.01
2019-1-30,38.8,36.3,33.9,35.6,32.4,29.3,93,88,81,29.40,29.32,1,0,1,0.07
2019-1-31,36.0,32.8,29.6,34.1,31.2,28.3,96,94,91,29.43,29.26,6,0,7,0.01
2019-2-1,37.3,34.2,31.2,36.3,32.9,29.3,96,94,87,29.34,29.17,5,0,9,0.02
2019-2-2,40.0,38.2,36.6,38.3,37.0,35.6,96,95,92,29.89,29.34,2,0,2,0.06
2019-2-3,44.8,40.1,35.5,38.1,35.7,31.6,93,84,73,30.29,29.89,10,0,10,0.01
2019-2-4,39.7,37.4,35.1,38.4,34.4,31.3,95,90,80,30.28,30.13,12,0,22,0.20
2019-2-5,42.7,41.2,39.7,41.7,39.7,37.6,97,95,87,30.35,30.21,16,1,16,0.00
2019-2-6,45.7,42.6,39.5,44.9,40.7,36.2,97,94,86,30.25,29.91,19,0,19,0.35
2019-2-7,49.4,47.0,44.6,47.7,42.8,38.1,97,86,74,29.91,29.66,35,1,36,0.21
2019-2-8,50.0,46.4,42.8,45.9,44.0,40.2,94,89,83,29.86,29.43,28,1,28,0.10
2019-2-9,50.0,48.2,46.4,45.5,42.5,39.6,91,81,72,29.70,29.43,37,1,37,0.09
2019-2-10,47.9,44.2,40.6,45.9,42.1,38.5,96,93,80,29.70,29.17,28,0,28,0.93
2019-2-11,48.1,44.6,41.2,42.1,39.2,37.1,90,84,71,30.48,29.70,14,0,14,0.03
2019-2-12,49.9,45.0,40.1,42.4,40.0,36.8,92,84,71,30.56,30.47,12,0,12,0.00
2019-2-13,49.4,45.2,41.9,42.3,41.1,36.8,90,81,77,30.60,30.55,10,0,10,0.00
2019-2-14,57.0,47.5,38.1,41.6,37.8,34.4,88,74,52,30.60,30.51,6,0,6,0.00
2019-2-15,61.6,50.2,38.9,42.5,37.3,33.6,83,65,42,30.51,30.29,8,0,9,0.00
2019-2-16,56.6,49.7,42.8,46.7,41.8,37.7,85,76,66,30.30,30.24,8,0,8,0.00
2019-2-17,61.3,50.7,40.0,42.2,39.5,36.2,89,69,44,30.24,30.04,10,0,10,0.00
2019-2-18,57.3,50.3,43.4,48.7,43.3,38.0,90,79,69,30.09,29.98,8,0,8,0.00
2019-2-19,50.2,47.2,44.3,43.7,42.3,40.9,90,85,75,30.14,30.00,13,0,16,0.00
2019-2-20,53.1,47.8,42.6,43.5,40.9,38.1,90,79,59,30.24,30.13,19,0,20,0.00
2019-2-21,51.3,48.3,45.4,47.7,44.5,40.8,95,88,81,30.47,30.23,11,0,11,0.00
2019-2-22,55.5,49.6,43.7,51.5,46.4,42.6,97,91,82,30.68,30.47,1,0,1,0.00
2019-2-23,49.2,47.8,46.3,46.1,45.0,44.1,92,91,89,30.68,30.67,1,0,1,0.00